This demonstration page uses our WeatherBlox Daily Observations layout. Learn more.

Left ArrowRight Arrow

Hourly Observations for April 15, 2021

Temp ( °F °C ) Dew Point ( °F °C ) Humidity (%) Winds ( mph kmh ) Pressure ( in mb ) Visibility ( mi km ) Precip ( " mm )
12:56 am 00:56 Clear 34 1.1 26 -3.3 73 73 N 5 7 30.32 1027 10 16 0.00 0.00
1:56 am 01:56 Mostly Clear 30 -1.1 26 -3.3 85 85 NW 7 11 30.32 1027 10 16 0.00 0.00
2:56 am 02:56 Clear 32 0 26 -3.3 79 79 NW 7 11 30.29 1026 10 16 0.00 0.00
3:56 am 03:56 Clear 33 0.6 27 -2.8 78 78 NW 6 9 30.29 1026 10 16 0.00 0.00
4:56 am 04:56 Partly Cloudy 34 1.1 28 -2.2 79 79 NNW 5 7 30.28 1025 10 16 0.00 0.00
5:56 am 05:56 Cloudy 34 1.1 28 -2.2 79 79 NNW 6 9 30.27 1025 10 16 0.00 0.00
6:56 am 06:56 Clear 30 -1.1 26 -3.3 85 85 NE 7 11 30.27 1025 10 16 0.00 0.00
7:56 am 07:56 Sunny 32 0 28 -2.2 85 85 NNE 5 7 30.28 1025 10 16 0.00 0.00
8:56 am 08:56 Sunny 36 2.2 28 -2.2 73 73 E 5 7 30.29 1026 10 16 0.00 0.00
9:56 am 09:56 Sunny 39 3.9 29 -1.7 67 67 VRB 5 7 30.28 1025 10 16 0.00 0.00
10:56 am 10:56 Sunny 42 5.6 29 -1.7 60 60 NE 7 11 30.27 1025 10 16 0.00 0.00
11:56 am 11:56 Sunny 43 6.1 28 -2.2 56 56 N 3 6 30.25 1024 10 16 0.00 0.00
12:56 pm 12:56 Partly Cloudy 45 7.2 30 -1.1 56 56 VRB 3 6 30.22 1023 10 16 0.00 0.00
1:56 pm 13:56 Cloudy 47 8.3 30 -1.1 52 52 NE 13 20 30.17 1022 10 16 0.00 0.00
2:56 pm 14:56 Mostly Cloudy 48 8.9 31 -0.6 52 52 ENE 8 13 30.15 1021 10 16 0.00 0.00
3:56 pm 15:56 Mostly Cloudy 48 8.9 30 -1.1 50 50 VRB 6 9 30.13 1020 10 16 0.00 0.00
4:56 pm 16:56 Cloudy 49 9.4 30 -1.1 48 48 ENE 7 11 30.11 1020 10 16 0.00 0.00
5:56 pm 17:56 Cloudy 48 8.9 30 -1.1 50 50 NE 7 11 30.11 1020 10 16 0.00 0.00
6:56 pm 18:56 Cloudy 48 8.9 30 -1.1 50 50 ENE 9 15 30.11 1020 10 16 0.00 0.00
7:56 pm 19:56 Cloudy 47 8.3 31 -0.6 54 54 NE 8 13 30.11 1020 10 16 0.00 0.00
8:56 pm 20:56 Cloudy 45 7.2 31 -0.6 58 58 NE 14 22 30.10 1019 10 16 0.00 0.00
9:56 pm 21:56 Partly Cloudy 43 6.1 30 -1.1 60 60 NE 12 19 30.12 1020 10 16 0.00 0.00
10:56 pm 22:56 Cloudy 41 5 31 -0.6 67 67 NE 15 24 30.14 1021 10 16 0.00 0.00
11:56 pm 23:56 Cloudy 39 3.9 31 -0.6 73 73 NE 13 20 30.16 1021 10 16 0.00 0.00

Powered by AerisWeather